PICSAT (43132 NORAD) Tracking and Keplerian Element Data

This shows tracking and keplerian element data for the satellite.

Feedback or suggestion? Click here.




ElementValue
Catalog43132
NamePICSAT
Epoch Orbit31359
Epoch Day238.79855011
Epoch Year2023
RAAN324.8694
Inclination97.3181
Eccentricity0.000582
Argument of Perigee229.1289
Mean Anonmoly130.9472
Mean Motion15.75613111
Decay Rate0.00234868
L11 43132U 18004X 23238.79855011 .00234868 00000+0 15038-2 0 9999
L22 43132 97.3181 324.8694 0005820 229.1289 130.9472 15.75613111313596



Live tracking and technical data element details for PICSAT (NORAD 43132). PICSAT can be tracked NOW for your location showing map with azimuth and elevation plus other details from your city location.







IsCatalogInMostPopularTable: catalog: 43132, numindb: 1125
Update: records affected: 1



GetName: 43132 PICSAT

Hit Count: updated at: Fri, 11 Jul 2025 00:10:35 GMT